FDB807 OMDB-OEJN

Flight info

Callsign FDB807
Flight time 2h 50m
Altitude 34000
Route ANVIX R401 GIDIS G783 RIGIL M628 PEKEM DCT MEDPO DCT ITRUX/N0474F360 Y511 ASMIS T218 IMGUT M309 VEMEM
Aircraft B738/M-VGDW/C

Departure

Time 2026-05-07 15:46
Airport Dubai International Airport (OMDB)

Arrival

Time 2026-05-07 18:36
Airport King Abdulaziz International Airport (OEJN)
Time Latitude Longitude Altitude Speed Heading
2026-05-07 15:17 25.25797 55.37463 20 ft 0 kts 302°
2026-05-07 15:34 25.25796 55.37464 20 ft 2 kts 301°
2026-05-07 15:34 25.25788 55.37480 -7 ft 2 kts 296°
2026-05-07 15:34 25.25782 55.37497 20 ft 2 kts 287°
2026-05-07 15:35 25.25779 55.37515 20 ft 2 kts 259°
2026-05-07 15:35 25.25787 55.37531 25 ft 2 kts 219°
2026-05-07 15:35 25.25794 55.37536 22 ft 1 kts 212°
2026-05-07 15:35 25.25794 55.37537 22 ft 0 kts 212°
2026-05-07 15:38 25.25788 55.37533 20 ft 3 kts 209°
2026-05-07 15:38 25.25760 55.37516 20 ft 5 kts 209°
2026-05-07 15:38 25.25731 55.37498 20 ft 5 kts 211°
2026-05-07 15:38 25.25703 55.37479 20 ft 5 kts 211°
2026-05-07 15:39 25.25675 55.37460 22 ft 5 kts 211°
2026-05-07 15:39 25.25648 55.37442 20 ft 5 kts 211°
2026-05-07 15:39 25.25621 55.37424 22 ft 4 kts 211°
2026-05-07 15:39 25.25595 55.37406 20 ft 4 kts 211°
2026-05-07 15:40 25.25569 55.37388 21 ft 4 kts 211°
2026-05-07 15:40 25.25530 55.37361 22 ft 7 kts 211°
2026-05-07 15:40 25.25484 55.37362 21 ft 7 kts 140°
2026-05-07 15:40 25.25441 55.37385 22 ft 7 kts 179°
2026-05-07 15:41 25.25392 55.37385 25 ft 7 kts 168°
2026-05-07 15:41 25.25346 55.37429 26 ft 11 kts 123°
2026-05-07 15:41 25.25306 55.37496 24 ft 10 kts 121°
2026-05-07 15:41 25.25269 55.37563 25 ft 10 kts 122°
2026-05-07 15:42 25.25232 55.37627 24 ft 10 kts 122°
2026-05-07 15:42 25.25198 55.37691 24 ft 10 kts 120°
2026-05-07 15:42 25.25164 55.37752 23 ft 9 kts 122°
2026-05-07 15:42 25.25130 55.37812 25 ft 9 kts 122°
2026-05-07 15:43 25.25098 55.37869 22 ft 9 kts 122°
2026-05-07 15:43 25.25066 55.37925 23 ft 8 kts 122°
2026-05-07 15:43 25.25035 55.37980 22 ft 8 kts 121°
2026-05-07 15:43 25.25016 55.38011 24 ft 0 kts 130°
2026-05-07 15:44 25.25013 55.38015 23 ft 2 kts 131°
2026-05-07 15:44 25.25004 55.38027 22 ft 2 kts 131°
2026-05-07 15:44 25.24991 55.38037 23 ft 4 kts 152°
2026-05-07 15:45 25.24943 55.38025 24 ft 6 kts 214°
2026-05-07 15:45 25.24910 55.38000 27 ft 6 kts 214°
2026-05-07 15:45 25.24879 55.37973 29 ft 6 kts 230°
2026-05-07 15:45 25.24902 55.37841 29 ft 48 kts 303°
2026-05-07 15:46 25.25725 55.36388 65 ft 164 kts 302°
2026-05-07 15:46 25.26363 55.35262 635 ft 174 kts 302°
2026-05-07 15:46 25.27013 55.34133 1297 ft 185 kts 299°
2026-05-07 15:47 25.27713 55.32846 1792 ft 199 kts 298°
2026-05-07 15:47 25.28471 55.31460 2062 ft 221 kts 300°
2026-05-07 15:47 25.29108 55.29904 2574 ft 228 kts 278°
2026-05-07 15:47 25.28998 55.28165 3209 ft 232 kts 252°
2026-05-07 15:48 25.28373 55.26509 3875 ft 235 kts 245°
2026-05-07 15:48 25.27651 55.24860 4496 ft 242 kts 244°
2026-05-07 15:48 25.26913 55.23174 5129 ft 245 kts 244°
2026-05-07 15:48 25.26182 55.21488 5808 ft 247 kts 244°
2026-05-07 15:49 25.25439 55.19763 6467 ft 250 kts 245°
2026-05-07 15:49 25.24612 55.18076 7117 ft 251 kts 229°
2026-05-07 15:49 25.23209 55.16956 7742 ft 255 kts 199°
2026-05-07 15:49 25.21423 55.16714 8254 ft 264 kts 179°
2026-05-07 15:50 25.19596 55.17004 8878 ft 269 kts 159°
2026-05-07 15:50 25.18052 55.18191 9430 ft 282 kts 132°
2026-05-07 15:50 25.16989 55.20096 9759 ft 299 kts 118°
2026-05-07 15:50 25.16026 55.22167 10331 ft 304 kts 118°
2026-05-07 15:51 25.15055 55.24241 11062 ft 303 kts 119°
2026-05-07 15:51 25.14073 55.26307 11770 ft 304 kts 119°
2026-05-07 15:51 25.13083 55.28378 12491 ft 305 kts 119°
2026-05-07 15:51 25.12089 55.30446 13228 ft 305 kts 118°
2026-05-07 15:52 25.11103 55.32494 13885 ft 307 kts 118°
2026-05-07 15:52 25.10139 55.34614 14422 ft 311 kts 115°
2026-05-07 15:52 25.09244 55.36805 15042 ft 314 kts 114°
2026-05-07 15:52 25.08350 55.39018 15602 ft 318 kts 114°
2026-05-07 15:53 25.07440 55.41248 16219 ft 320 kts 114°
2026-05-07 15:53 25.06536 55.43528 16579 ft 332 kts 113°
2026-05-07 15:53 25.05615 55.45938 16693 ft 350 kts 112°
2026-05-07 15:53 25.04647 55.48480 16837 ft 367 kts 112°
2026-05-07 15:54 25.03632 55.51130 16964 ft 382 kts 113°
2026-05-07 15:54 25.02586 55.53844 17068 ft 397 kts 113°
2026-05-07 15:54 25.01431 55.56657 17186 ft 409 kts 117°
2026-05-07 15:54 24.99991 55.59417 17293 ft 421 kts 121°
2026-05-07 15:55 24.98406 55.62186 17396 ft 431 kts 122°
2026-05-07 15:55 24.96807 55.65007 17628 ft 436 kts 121°
2026-05-07 15:55 24.95219 55.67896 17944 ft 439 kts 120°
2026-05-07 15:55 24.93632 55.70780 18256 ft 442 kts 122°
2026-05-07 15:56 24.91874 55.73569 18559 ft 444 kts 126°
2026-05-07 15:56 24.90030 55.76269 18844 ft 446 kts 127°
2026-05-07 15:56 24.88146 55.78998 19124 ft 448 kts 127°
2026-05-07 15:56 24.86279 55.81761 19396 ft 451 kts 126°
2026-05-07 15:57 24.84418 55.84557 19678 ft 453 kts 126°
2026-05-07 15:57 24.82551 55.87357 19944 ft 455 kts 126°
2026-05-07 15:57 24.80597 55.90112 20195 ft 458 kts 134°
2026-05-07 15:57 24.78070 55.92235 20423 ft 460 kts 152°
2026-05-07 15:58 24.75112 55.93476 20713 ft 461 kts 167°
2026-05-07 15:58 24.71921 55.93796 20973 ft 462 kts 182°
2026-05-07 15:58 24.68703 55.93630 21251 ft 463 kts 183°
2026-05-07 15:58 24.65476 55.93476 21477 ft 466 kts 182°
2026-05-07 15:59 24.62252 55.93049 21680 ft 468 kts 194°
2026-05-07 15:59 24.59166 55.91864 21931 ft 468 kts 206°
2026-05-07 15:59 24.56371 55.90033 22189 ft 469 kts 218°
2026-05-07 15:59 24.53902 55.87687 22447 ft 469 kts 222°
2026-05-07 16:00 24.51508 55.85296 22672 ft 470 kts 223°
2026-05-07 16:00 24.49079 55.82875 22884 ft 472 kts 222°
2026-05-07 16:00 24.46629 55.80469 23109 ft 473 kts 222°
2026-05-07 16:00 24.44161 55.78078 23333 ft 474 kts 221°
2026-05-07 16:01 24.41677 55.75691 23508 ft 475 kts 221°
2026-05-07 16:01 24.39186 55.73304 23698 ft 476 kts 221°
2026-05-07 16:01 24.36681 55.70902 23852 ft 477 kts 222°
2026-05-07 16:01 24.34206 55.68528 24007 ft 478 kts 221°
2026-05-07 16:02 24.31703 55.66127 24172 ft 479 kts 221°
2026-05-07 16:02 24.29185 55.63724 24329 ft 480 kts 220°
2026-05-07 16:02 24.26459 55.61605 24463 ft 482 kts 211°
2026-05-07 16:02 24.23468 55.59936 24606 ft 484 kts 203°
2026-05-07 16:03 24.20270 55.58766 24749 ft 485 kts 195°
2026-05-07 16:03 24.16997 55.57835 24891 ft 486 kts 195°
2026-05-07 16:03 24.13714 55.56918 25004 ft 488 kts 195°
2026-05-07 16:03 24.10421 55.55976 25090 ft 490 kts 196°
2026-05-07 16:04 24.07127 55.55005 25194 ft 491 kts 196°
2026-05-07 16:04 24.03834 55.54020 25320 ft 491 kts 196°
2026-05-07 16:04 24.00523 55.53027 25458 ft 492 kts 196°
2026-05-07 16:04 23.97221 55.52042 25621 ft 491 kts 196°
2026-05-07 16:05 23.93965 55.51075 25799 ft 490 kts 196°
2026-05-07 16:05 23.90669 55.50097 25986 ft 489 kts 196°
2026-05-07 16:05 23.87384 55.49123 26169 ft 489 kts 197°
2026-05-07 16:05 23.84104 55.48150 26357 ft 488 kts 197°
2026-05-07 16:06 23.80821 55.47176 26544 ft 488 kts 197°
2026-05-07 16:06 23.77553 55.46205 26744 ft 487 kts 197°
2026-05-07 16:06 23.74283 55.45234 26951 ft 486 kts 197°
2026-05-07 16:06 23.71017 55.44265 27166 ft 485 kts 197°
2026-05-07 16:07 23.67763 55.43300 27376 ft 485 kts 197°
2026-05-07 16:07 23.64505 55.42335 27582 ft 484 kts 197°
2026-05-07 16:07 23.61242 55.41368 27791 ft 484 kts 197°
2026-05-07 16:07 23.57989 55.40404 28001 ft 483 kts 197°
2026-05-07 16:08 23.54786 55.39456 28220 ft 483 kts 197°
2026-05-07 16:08 23.51540 55.38496 28455 ft 482 kts 197°
2026-05-07 16:08 23.48299 55.37538 28689 ft 481 kts 197°
2026-05-07 16:08 23.45068 55.36583 28912 ft 481 kts 197°
2026-05-07 16:09 23.41840 55.35629 29153 ft 480 kts 197°
2026-05-07 16:09 23.38620 55.34678 29409 ft 479 kts 197°
2026-05-07 16:09 23.35407 55.33729 29652 ft 478 kts 198°
2026-05-07 16:09 23.32194 55.32781 29872 ft 478 kts 198°
2026-05-07 16:10 23.28978 55.31832 30081 ft 477 kts 198°
2026-05-07 16:10 23.25769 55.30886 30300 ft 477 kts 198°
2026-05-07 16:10 23.22572 55.29943 30502 ft 476 kts 198°
2026-05-07 16:10 23.19402 55.29009 30699 ft 476 kts 198°
2026-05-07 16:11 23.16206 55.28068 30916 ft 475 kts 198°
2026-05-07 16:11 23.13010 55.27127 31135 ft 475 kts 197°
2026-05-07 16:11 23.09820 55.26184 31351 ft 474 kts 199°
2026-05-07 16:11 23.06819 55.24755 31510 ft 469 kts 216°
2026-05-07 16:12 23.04386 55.22506 31717 ft 464 kts 230°
2026-05-07 16:12 23.02487 55.19646 31943 ft 461 kts 242°
2026-05-07 16:12 23.01314 55.16529 32112 ft 459 kts 256°
2026-05-07 16:12 23.00595 55.13149 32346 ft 459 kts 258°
2026-05-07 16:13 22.99959 55.09764 32545 ft 459 kts 259°
2026-05-07 16:13 22.99342 55.06367 32735 ft 459 kts 259°
2026-05-07 16:13 22.98930 55.04112 32886 ft 458 kts 259°
2026-05-07 16:13 22.98301 55.00732 33139 ft 457 kts 258°
2026-05-07 16:14 22.97657 54.97360 33408 ft 456 kts 258°
2026-05-07 16:14 22.97003 54.93998 33645 ft 455 kts 258°
2026-05-07 16:14 22.96342 54.90641 33785 ft 455 kts 258°
2026-05-07 16:15 22.95003 54.83898 33797 ft 456 kts 258°
2026-05-07 16:15 22.93666 54.77189 33795 ft 454 kts 258°
2026-05-07 16:16 22.92332 54.70498 33801 ft 453 kts 258°
2026-05-07 16:16 22.90998 54.63818 33799 ft 452 kts 258°
2026-05-07 16:17 22.89675 54.57209 33797 ft 451 kts 258°
2026-05-07 16:17 22.88341 54.50557 33798 ft 451 kts 258°
2026-05-07 16:18 22.87003 54.43902 33795 ft 452 kts 258°
2026-05-07 16:18 22.85660 54.37240 33798 ft 452 kts 258°
2026-05-07 16:19 22.84312 54.30561 33801 ft 453 kts 257°
2026-05-07 16:19 22.82960 54.23883 33803 ft 454 kts 257°
2026-05-07 16:20 22.81602 54.17189 33794 ft 454 kts 257°
2026-05-07 16:20 22.80249 54.10535 33796 ft 455 kts 257°
2026-05-07 16:21 22.78884 54.03833 33801 ft 455 kts 257°
2026-05-07 16:21 22.77525 53.97141 33794 ft 455 kts 258°
2026-05-07 16:22 22.76216 53.90441 33797 ft 454 kts 258°
2026-05-07 16:22 22.74917 53.83736 33794 ft 454 kts 258°
2026-05-07 16:23 22.73615 53.77054 33798 ft 453 kts 258°
2026-05-07 16:23 22.72313 53.70409 33798 ft 453 kts 258°
2026-05-07 16:24 22.70998 53.63720 33799 ft 453 kts 258°
2026-05-07 16:24 22.69686 53.57061 33796 ft 452 kts 258°
2026-05-07 16:25 22.68369 53.50396 33791 ft 452 kts 258°
2026-05-07 16:25 22.67060 53.43781 33794 ft 452 kts 258°
2026-05-07 16:26 22.65741 53.37133 33796 ft 451 kts 258°
2026-05-07 16:26 22.64420 53.30490 33797 ft 451 kts 258°
2026-05-07 16:27 22.63097 53.23851 33800 ft 451 kts 258°
2026-05-07 16:27 22.61771 53.17212 33796 ft 450 kts 257°
2026-05-07 16:28 22.60453 53.10628 33792 ft 450 kts 257°
2026-05-07 16:28 22.59123 53.04003 33791 ft 450 kts 257°
2026-05-07 16:29 22.57793 52.97388 33799 ft 450 kts 257°
2026-05-07 16:29 22.56458 52.90765 33799 ft 450 kts 257°
2026-05-07 16:30 22.55119 52.84135 33800 ft 450 kts 257°
2026-05-07 16:30 22.53787 52.77556 33793 ft 450 kts 257°
2026-05-07 16:31 22.52443 52.70929 33794 ft 451 kts 257°
2026-05-07 16:31 22.51097 52.64308 33792 ft 451 kts 257°
2026-05-07 16:32 22.49746 52.57678 33796 ft 451 kts 257°
2026-05-07 16:32 22.48395 52.51064 33794 ft 451 kts 257°
2026-05-07 16:33 22.47045 52.44467 33796 ft 450 kts 257°
2026-05-07 16:33 22.45689 52.37856 33795 ft 450 kts 257°
2026-05-07 16:34 22.44329 52.31241 33793 ft 450 kts 257°
2026-05-07 16:34 22.42967 52.24627 33794 ft 450 kts 257°
2026-05-07 16:35 22.41605 52.18023 33789 ft 450 kts 257°
2026-05-07 16:35 22.40729 52.11376 33789 ft 450 kts 269°
2026-05-07 16:36 22.41224 52.04617 33794 ft 451 kts 274°
2026-05-07 16:36 22.41866 51.97867 33791 ft 451 kts 274°
2026-05-07 16:37 22.42481 51.91128 33789 ft 451 kts 274°
2026-05-07 16:37 22.43069 51.84384 33791 ft 450 kts 274°
2026-05-07 16:38 22.43634 51.77769 33794 ft 450 kts 274°
2026-05-07 16:38 22.44206 51.71028 33791 ft 450 kts 274°
2026-05-07 16:39 22.44772 51.64327 33793 ft 450 kts 274°
2026-05-07 16:39 22.45339 51.57587 33791 ft 450 kts 274°
2026-05-07 16:40 22.45904 51.50843 33790 ft 450 kts 274°
2026-05-07 16:40 22.46466 51.44103 33791 ft 450 kts 273°
2026-05-07 16:41 22.47022 51.37398 33790 ft 450 kts 273°
2026-05-07 16:41 22.47578 51.30660 33786 ft 450 kts 273°
2026-05-07 16:42 22.48133 51.23901 33800 ft 451 kts 273°
2026-05-07 16:42 22.48686 51.17128 33799 ft 452 kts 273°
2026-05-07 16:43 22.49233 51.10387 33795 ft 453 kts 273°
2026-05-07 16:43 22.49782 51.03599 33795 ft 453 kts 273°
2026-05-07 16:44 22.50329 50.96799 33793 ft 454 kts 273°
2026-05-07 16:44 22.50870 50.90032 33796 ft 453 kts 273°
2026-05-07 16:45 22.51411 50.83231 33796 ft 453 kts 273°
2026-05-07 16:45 22.51949 50.76433 33797 ft 453 kts 273°
2026-05-07 16:46 22.52483 50.69644 33797 ft 453 kts 272°
2026-05-07 16:46 22.53011 50.62900 33794 ft 452 kts 272°
2026-05-07 16:47 22.53539 50.56110 33800 ft 452 kts 272°
2026-05-07 16:47 22.54064 50.49331 33798 ft 451 kts 272°
2026-05-07 16:48 22.54585 50.42560 33801 ft 451 kts 272°
2026-05-07 16:48 22.55104 50.35791 33805 ft 451 kts 272°
2026-05-07 16:49 22.55615 50.29075 33804 ft 450 kts 272°
2026-05-07 16:49 22.56127 50.22313 33799 ft 450 kts 272°
2026-05-07 16:50 22.56637 50.15546 33802 ft 450 kts 272°
2026-05-07 16:50 22.57142 50.08802 33806 ft 450 kts 272°
2026-05-07 16:51 22.57641 50.02099 33804 ft 449 kts 272°
2026-05-07 16:51 22.58140 49.95351 33803 ft 449 kts 272°
2026-05-07 16:52 22.58636 49.88616 33803 ft 449 kts 272°
2026-05-07 16:52 22.59129 49.81878 33806 ft 448 kts 272°
2026-05-07 16:53 22.59619 49.75152 33806 ft 448 kts 272°
2026-05-07 16:53 22.60105 49.68427 33806 ft 448 kts 272°
2026-05-07 16:54 22.60586 49.61737 33806 ft 448 kts 272°
2026-05-07 16:54 22.61068 49.55005 33806 ft 447 kts 271°
2026-05-07 16:55 22.61545 49.48295 33806 ft 447 kts 271°
2026-05-07 16:55 22.61939 49.42712 33808 ft 447 kts 271°
2026-05-07 16:56 22.62489 49.34893 33811 ft 447 kts 271°
2026-05-07 16:56 22.63191 49.24816 33812 ft 447 kts 271°
2026-05-07 16:57 22.63578 49.19231 33806 ft 447 kts 271°
2026-05-07 16:57 22.64040 49.12520 33808 ft 447 kts 271°
2026-05-07 16:58 22.64499 49.05807 33821 ft 447 kts 271°
2026-05-07 16:58 22.64953 48.99130 33811 ft 447 kts 271°
2026-05-07 16:59 22.65407 48.92408 33811 ft 447 kts 271°
2026-05-07 16:59 22.65858 48.85702 33811 ft 447 kts 271°
2026-05-07 17:00 22.66306 48.78990 33817 ft 446 kts 271°
2026-05-07 17:00 22.66749 48.72306 33827 ft 446 kts 271°
2026-05-07 17:01 22.67190 48.65610 33822 ft 446 kts 271°
2026-05-07 17:01 22.67626 48.58952 33827 ft 445 kts 271°
2026-05-07 17:02 22.68061 48.52263 33824 ft 445 kts 270°
2026-05-07 17:02 22.68494 48.45575 33830 ft 445 kts 270°
2026-05-07 17:03 22.68923 48.38884 33828 ft 445 kts 270°
2026-05-07 17:03 22.69350 48.32191 33822 ft 445 kts 270°
2026-05-07 17:04 22.69772 48.25545 33830 ft 444 kts 270°
2026-05-07 17:04 22.70192 48.18869 33825 ft 444 kts 270°
2026-05-07 17:05 22.70610 48.12191 33824 ft 444 kts 270°
2026-05-07 17:05 22.71024 48.05515 33829 ft 444 kts 270°
2026-05-07 17:06 22.71434 47.98881 33827 ft 444 kts 270°
2026-05-07 17:06 22.71843 47.92203 33830 ft 443 kts 270°
2026-05-07 17:07 22.72250 47.85527 33835 ft 443 kts 270°
2026-05-07 17:07 22.72650 47.78902 33842 ft 443 kts 270°
2026-05-07 17:08 22.73051 47.72233 33843 ft 443 kts 270°
2026-05-07 17:08 22.73448 47.65571 33841 ft 442 kts 270°
2026-05-07 17:09 22.73839 47.58958 33844 ft 442 kts 270°
2026-05-07 17:09 22.74230 47.52315 33851 ft 442 kts 270°
2026-05-07 17:10 22.74618 47.45662 33855 ft 441 kts 270°
2026-05-07 17:10 22.75003 47.39027 33856 ft 441 kts 270°
2026-05-07 17:11 22.75383 47.32420 33861 ft 440 kts 270°
2026-05-07 17:11 22.75762 47.25784 33861 ft 440 kts 269°
2026-05-07 17:12 22.76136 47.19194 33867 ft 440 kts 269°
2026-05-07 17:12 22.76582 47.12568 33871 ft 440 kts 271°
2026-05-07 17:13 22.77128 47.05958 33873 ft 440 kts 271°
2026-05-07 17:13 22.77671 46.99339 33879 ft 440 kts 271°
2026-05-07 17:14 22.78193 46.92782 33878 ft 439 kts 271°
2026-05-07 17:14 22.78710 46.86166 33884 ft 439 kts 271°
2026-05-07 17:15 22.79220 46.79594 33887 ft 440 kts 271°
2026-05-07 17:15 22.79730 46.72991 33894 ft 440 kts 271°
2026-05-07 17:16 22.80239 46.66383 33895 ft 440 kts 271°
2026-05-07 17:16 22.80744 46.59778 33905 ft 440 kts 271°
2026-05-07 17:17 22.81247 46.53168 33907 ft 440 kts 271°
2026-05-07 17:17 22.81748 46.46547 33918 ft 439 kts 271°
2026-05-07 17:18 22.82242 46.39980 33911 ft 439 kts 271°
2026-05-07 17:18 22.82734 46.33378 33915 ft 439 kts 271°
2026-05-07 17:19 22.83222 46.26781 33908 ft 438 kts 271°
2026-05-07 17:19 22.83705 46.20203 33913 ft 437 kts 271°
2026-05-07 17:20 22.84187 46.13623 33910 ft 437 kts 271°
2026-05-07 17:20 22.84662 46.07088 33911 ft 437 kts 271°
2026-05-07 17:21 22.85137 46.00523 33902 ft 437 kts 271°
2026-05-07 17:21 22.85609 45.93956 33905 ft 436 kts 270°
2026-05-07 17:22 22.86079 45.87385 33900 ft 436 kts 270°
2026-05-07 17:22 22.86542 45.80873 33899 ft 436 kts 270°
2026-05-07 17:23 22.87005 45.74312 33896 ft 436 kts 270°
2026-05-07 17:23 22.87466 45.67752 33901 ft 435 kts 270°
2026-05-07 17:24 22.87924 45.61198 33899 ft 435 kts 270°
2026-05-07 17:24 22.88375 45.54694 33904 ft 435 kts 270°
2026-05-07 17:25 22.88828 45.48139 33902 ft 435 kts 270°
2026-05-07 17:25 22.89277 45.41593 33898 ft 435 kts 270°
2026-05-07 17:26 22.89722 45.35056 33905 ft 434 kts 270°
2026-05-07 17:26 22.90163 45.28556 33907 ft 434 kts 270°
2026-05-07 17:27 22.90603 45.22020 33906 ft 434 kts 270°
2026-05-07 17:27 22.91040 45.15495 33909 ft 433 kts 270°
2026-05-07 17:28 22.91475 45.08976 33911 ft 433 kts 270°
2026-05-07 17:28 22.91905 45.02460 33914 ft 432 kts 270°
2026-05-07 17:29 22.92329 44.95983 33922 ft 432 kts 269°
2026-05-07 17:29 22.92753 44.89476 33911 ft 431 kts 269°
2026-05-07 17:30 22.93173 44.83020 33917 ft 430 kts 268°
2026-05-07 17:30 22.93588 44.76546 33915 ft 429 kts 268°
2026-05-07 17:31 22.94003 44.70073 33915 ft 429 kts 268°
2026-05-07 17:31 22.94137 44.63681 33920 ft 424 kts 263°
2026-05-07 17:32 22.93843 44.57305 33913 ft 423 kts 262°
2026-05-07 17:32 22.93571 44.51962 33915 ft 423 kts 262°
2026-05-07 17:33 22.93219 44.44556 33916 ft 423 kts 262°
2026-05-07 17:33 22.92932 44.38188 33916 ft 423 kts 262°
2026-05-07 17:34 22.92647 44.31821 33913 ft 422 kts 262°
2026-05-07 17:34 22.92362 44.25496 33919 ft 422 kts 262°
2026-05-07 17:35 22.92071 44.19093 33925 ft 422 kts 262°
2026-05-07 17:35 22.91781 44.12768 33928 ft 422 kts 262°
2026-05-07 17:36 22.91483 44.06400 33940 ft 423 kts 262°
2026-05-07 17:36 22.91186 44.00024 33939 ft 423 kts 262°
2026-05-07 17:37 22.90886 43.93642 33948 ft 423 kts 262°
2026-05-07 17:37 22.90583 43.87263 33947 ft 423 kts 262°
2026-05-07 17:38 22.90280 43.80928 33960 ft 423 kts 262°
2026-05-07 17:38 22.89971 43.74545 33962 ft 424 kts 262°
2026-05-07 17:39 22.89659 43.68147 33973 ft 424 kts 262°
2026-05-07 17:39 22.89345 43.61756 33971 ft 425 kts 262°
2026-05-07 17:40 22.89028 43.55350 33979 ft 425 kts 262°
2026-05-07 17:40 22.88708 43.48942 33990 ft 426 kts 262°
2026-05-07 17:41 22.88385 43.42543 33987 ft 426 kts 262°
2026-05-07 17:41 22.88058 43.36101 34001 ft 427 kts 262°
2026-05-07 17:42 22.87731 43.29701 34009 ft 428 kts 262°
2026-05-07 17:42 22.87398 43.23250 34014 ft 428 kts 262°
2026-05-07 17:43 22.87062 43.16788 34015 ft 429 kts 263°
2026-05-07 17:43 22.86725 43.10341 34028 ft 430 kts 263°
2026-05-07 17:44 22.86440 43.04947 34025 ft 431 kts 262°
2026-05-07 17:44 22.86095 42.98437 34035 ft 431 kts 262°
2026-05-07 17:45 22.85690 42.90880 34031 ft 432 kts 262°
2026-05-07 17:45 22.85396 42.85432 34033 ft 432 kts 262°
2026-05-07 17:46 22.85042 42.78916 34040 ft 432 kts 262°
2026-05-07 17:46 22.84688 42.72454 34039 ft 432 kts 262°
2026-05-07 17:47 22.84330 42.65947 34041 ft 432 kts 262°
2026-05-07 17:47 22.83969 42.59453 34047 ft 431 kts 262°
2026-05-07 17:48 22.83605 42.52959 34049 ft 431 kts 262°
2026-05-07 17:48 22.83242 42.46517 34054 ft 430 kts 262°
2026-05-07 17:49 22.82875 42.40049 34062 ft 429 kts 261°
2026-05-07 17:49 22.82505 42.33582 34064 ft 429 kts 261°
2026-05-07 17:50 22.82133 42.27121 34065 ft 428 kts 261°
2026-05-07 17:50 22.81762 42.20716 34067 ft 427 kts 261°
2026-05-07 17:51 22.81386 42.14293 34066 ft 427 kts 261°
2026-05-07 17:51 22.81009 42.07871 34068 ft 426 kts 261°
2026-05-07 17:52 22.80630 42.01474 34063 ft 425 kts 261°
2026-05-07 17:52 22.80249 41.95076 34066 ft 424 kts 261°
2026-05-07 17:53 22.79863 41.88700 34064 ft 423 kts 261°
2026-05-07 17:53 22.79301 41.82417 34062 ft 420 kts 259°
2026-05-07 17:54 22.78661 41.76121 34056 ft 420 kts 259°
2026-05-07 17:54 22.78038 41.69829 34064 ft 419 kts 259°
2026-05-07 17:55 22.77434 41.63590 34063 ft 418 kts 259°
2026-05-07 17:55 22.76831 41.57334 34063 ft 417 kts 259°
2026-05-07 17:56 22.76224 41.51073 34062 ft 416 kts 259°
2026-05-07 17:56 22.75622 41.44884 34065 ft 415 kts 259°
2026-05-07 17:57 22.75115 41.39701 34061 ft 415 kts 259°
2026-05-07 17:57 22.74346 41.32458 34060 ft 412 kts 255°
2026-05-07 17:58 22.72660 41.26595 34068 ft 406 kts 245°
2026-05-07 17:58 22.70533 41.20914 34057 ft 407 kts 245°
2026-05-07 17:59 22.68454 41.15252 34061 ft 407 kts 246°
2026-05-07 17:59 22.66362 41.09541 34059 ft 407 kts 245°
2026-05-07 18:00 22.64265 41.03835 34056 ft 407 kts 245°
2026-05-07 18:00 22.62166 40.98131 34059 ft 408 kts 245°
2026-05-07 18:01 22.60064 40.92420 34057 ft 408 kts 245°
2026-05-07 18:01 22.57976 40.86752 34054 ft 408 kts 245°
2026-05-07 18:02 22.54822 40.78215 34058 ft 407 kts 245°
2026-05-07 18:03 22.52713 40.72516 34051 ft 407 kts 245°
2026-05-07 18:03 22.50607 40.66831 34056 ft 407 kts 245°
2026-05-07 18:04 22.48498 40.61142 34057 ft 407 kts 245°
2026-05-07 18:04 22.46383 40.55444 34057 ft 407 kts 245°
2026-05-07 18:05 22.44283 40.49794 34053 ft 407 kts 245°
2026-05-07 18:05 22.42172 40.44121 34060 ft 406 kts 245°
2026-05-07 18:06 22.40063 40.38459 34059 ft 406 kts 245°
2026-05-07 18:06 22.37953 40.32804 34062 ft 405 kts 245°
2026-05-07 18:07 22.35849 40.27169 34062 ft 404 kts 245°
2026-05-07 18:07 22.33748 40.21554 33296 ft 409 kts 245°
2026-05-07 18:07 22.32686 40.18715 32611 ft 406 kts 245°
2026-05-07 18:08 22.31623 40.15875 31844 ft 408 kts 246°
2026-05-07 18:08 22.30555 40.13025 31061 ft 410 kts 246°
2026-05-07 18:08 22.29481 40.10158 30262 ft 413 kts 246°
2026-05-07 18:08 22.28423 40.07335 30043 ft 401 kts 246°
2026-05-07 18:09 22.27388 40.04577 29873 ft 388 kts 246°
2026-05-07 18:09 22.26354 40.01928 29642 ft 377 kts 242°
2026-05-07 18:09 22.25024 39.99504 28877 ft 377 kts 236°
2026-05-07 18:09 22.23567 39.97200 28681 ft 368 kts 235°
2026-05-07 18:10 22.22129 39.94938 28353 ft 362 kts 236°
2026-05-07 18:10 22.20740 39.92687 28093 ft 363 kts 236°
2026-05-07 18:10 22.19322 39.90360 27861 ft 379 kts 236°
2026-05-07 18:10 22.17842 39.87929 27621 ft 395 kts 236°
2026-05-07 18:11 22.16302 39.85404 27324 ft 410 kts 236°
2026-05-07 18:11 22.15241 39.83668 26642 ft 430 kts 236°
2026-05-07 18:11 22.12963 39.79951 25586 ft 447 kts 236°
2026-05-07 18:11 22.11258 39.77174 24895 ft 442 kts 236°
2026-05-07 18:12 22.09585 39.74451 24230 ft 437 kts 237°
2026-05-07 18:12 22.07912 39.71732 23559 ft 433 kts 237°
2026-05-07 18:12 22.06255 39.69040 22774 ft 430 kts 237°
2026-05-07 18:12 22.04613 39.66372 22072 ft 425 kts 237°
2026-05-07 18:13 22.02990 39.63737 21409 ft 419 kts 237°
2026-05-07 18:13 22.01383 39.61128 20751 ft 415 kts 237°
2026-05-07 18:13 21.99811 39.58578 20102 ft 411 kts 236°
2026-05-07 18:13 21.98236 39.56022 19536 ft 406 kts 236°
2026-05-07 18:14 21.96834 39.53749 19426 ft 382 kts 236°
2026-05-07 18:14 21.95396 39.51421 19260 ft 367 kts 236°
2026-05-07 18:14 21.94027 39.49155 19121 ft 354 kts 240°
2026-05-07 18:14 21.92902 39.46853 19068 ft 342 kts 244°
2026-05-07 18:15 21.91900 39.44544 18932 ft 339 kts 245°
2026-05-07 18:15 21.90916 39.42227 18809 ft 336 kts 245°
2026-05-07 18:15 21.89949 39.39970 18655 ft 327 kts 245°
2026-05-07 18:15 21.88994 39.37778 18516 ft 318 kts 244°
2026-05-07 18:16 21.88059 39.35652 18382 ft 310 kts 244°
2026-05-07 18:16 21.87145 39.33592 18258 ft 301 kts 244°
2026-05-07 18:16 21.86250 39.31580 18130 ft 293 kts 244°
2026-05-07 18:16 21.85379 39.29627 17996 ft 286 kts 244°
2026-05-07 18:17 21.84540 39.27747 17868 ft 278 kts 244°
2026-05-07 18:17 21.83716 39.25902 17788 ft 266 kts 244°
2026-05-07 18:17 21.82904 39.24086 16725 ft 285 kts 244°
2026-05-07 18:17 21.81992 39.22084 15777 ft 301 kts 240°
2026-05-07 18:18 21.80803 39.20303 15591 ft 288 kts 230°
2026-05-07 18:18 21.79498 39.18711 15292 ft 280 kts 229°
2026-05-07 18:18 21.78212 39.17174 14960 ft 273 kts 229°
2026-05-07 18:18 21.76960 39.15668 14691 ft 265 kts 229°
2026-05-07 18:19 21.75751 39.14203 14415 ft 258 kts 229°
2026-05-07 18:19 21.74581 39.12775 14158 ft 250 kts 230°
2026-05-07 18:19 21.73447 39.11387 13979 ft 243 kts 230°
2026-05-07 18:19 21.72338 39.10025 13759 ft 241 kts 230°
2026-05-07 18:20 21.71234 39.08668 13523 ft 240 kts 230°
2026-05-07 18:20 21.70161 39.07349 13294 ft 233 kts 230°
2026-05-07 18:20 21.69114 39.06063 13067 ft 226 kts 230°
2026-05-07 18:20 21.68085 39.04799 12819 ft 225 kts 230°
2026-05-07 18:21 21.66888 39.03693 12550 ft 233 kts 206°
2026-05-07 18:21 21.65275 39.03370 12320 ft 242 kts 178°
2026-05-07 18:21 21.63622 39.03790 12092 ft 245 kts 165°
2026-05-07 18:21 21.62012 39.04428 11851 ft 247 kts 162°
2026-05-07 18:22 21.60409 39.05092 11609 ft 248 kts 162°
2026-05-07 18:22 21.59880 39.05310 11525 ft 248 kts 162°
2026-05-07 18:22 21.57204 39.06389 11126 ft 244 kts 162°
2026-05-07 18:22 21.55642 39.07008 10883 ft 233 kts 163°
2026-05-07 18:23 21.54156 39.07594 10624 ft 222 kts 163°
2026-05-07 18:23 21.52757 39.08144 10374 ft 212 kts 163°
2026-05-07 18:23 21.51389 39.08681 10126 ft 206 kts 163°
2026-05-07 18:23 21.50028 39.09218 10092 ft 211 kts 163°
2026-05-07 18:24 21.48637 39.09766 9942 ft 214 kts 162°
2026-05-07 18:24 21.47253 39.10314 9763 ft 211 kts 162°
2026-05-07 18:24 21.45871 39.10860 9507 ft 210 kts 162°
2026-05-07 18:24 21.44505 39.11400 9260 ft 208 kts 161°
2026-05-07 18:25 21.43151 39.11935 9011 ft 206 kts 161°
2026-05-07 18:25 21.41831 39.12457 8757 ft 202 kts 161°
2026-05-07 18:25 21.40516 39.12977 8508 ft 199 kts 161°
2026-05-07 18:25 21.39220 39.13489 8275 ft 198 kts 161°
2026-05-07 18:26 21.37926 39.14001 8083 ft 199 kts 161°
2026-05-07 18:26 21.36621 39.14517 8054 ft 200 kts 161°
2026-05-07 18:26 21.35305 39.15036 8010 ft 199 kts 160°
2026-05-07 18:26 21.34045 39.15632 7923 ft 201 kts 144°
2026-05-07 18:27 21.33222 39.16827 7593 ft 201 kts 107°
2026-05-07 18:27 21.33157 39.18288 7193 ft 199 kts 80°
2026-05-07 18:27 21.33506 39.19715 6788 ft 195 kts 74°
2026-05-07 18:27 21.33774 39.20646 6519 ft 192 kts 74°
2026-05-07 18:28 21.34500 39.22340 5860 ft 192 kts 45°
2026-05-07 18:28 21.35263 39.22865 5462 ft 197 kts 20°
2026-05-07 18:28 21.36586 39.23170 4959 ft 199 kts 359°
2026-05-07 18:28 21.37924 39.22996 4713 ft 185 kts 354°
2026-05-07 18:29 21.39159 39.22853 4479 ft 172 kts 355°
2026-05-07 18:29 21.40329 39.22736 4144 ft 166 kts 355°
2026-05-07 18:29 21.41474 39.22629 3815 ft 160 kts 354°
2026-05-07 18:29 21.42577 39.22529 3612 ft 158 kts 354°
2026-05-07 18:30 21.43681 39.22431 3472 ft 161 kts 354°
2026-05-07 18:30 21.44805 39.22332 3318 ft 161 kts 354°
2026-05-07 18:30 21.45900 39.22212 3160 ft 159 kts 347°
2026-05-07 18:30 21.46982 39.21897 3068 ft 161 kts 341°
2026-05-07 18:31 21.48021 39.21524 3002 ft 154 kts 339°
2026-05-07 18:31 21.49025 39.21139 3009 ft 155 kts 339°
2026-05-07 18:31 21.50039 39.20743 3007 ft 155 kts 339°
2026-05-07 18:31 21.51047 39.20344 2997 ft 154 kts 339°
2026-05-07 18:32 21.52054 39.19943 2964 ft 155 kts 338°
2026-05-07 18:32 21.53079 39.19535 2783 ft 156 kts 339°
2026-05-07 18:32 21.54067 39.19146 2597 ft 149 kts 340°
2026-05-07 18:32 21.55041 39.18768 2322 ft 149 kts 340°
2026-05-07 18:33 21.55989 39.18343 2100 ft 146 kts 337°
2026-05-07 18:33 21.56922 39.17894 1889 ft 146 kts 340°
2026-05-07 18:33 21.57842 39.17533 1664 ft 136 kts 343°
2026-05-07 18:33 21.58754 39.17218 1486 ft 138 kts 344°
2026-05-07 18:34 21.59669 39.16891 1338 ft 138 kts 342°
2026-05-07 18:34 21.60564 39.16544 1164 ft 135 kts 341°
2026-05-07 18:34 21.61453 39.16189 994 ft 138 kts 340°
2026-05-07 18:34 21.62351 39.15812 894 ft 140 kts 340°
2026-05-07 18:35 21.63266 39.15438 750 ft 141 kts 341°
2026-05-07 18:35 21.64191 39.15082 578 ft 142 kts 341°
2026-05-07 18:35 21.65129 39.14728 423 ft 143 kts 340°
2026-05-07 18:35 21.66056 39.14340 255 ft 143 kts 341°
2026-05-07 18:36 21.66986 39.13977 57 ft 142 kts 341°
2026-05-07 18:36 21.67852 39.13641 25 ft 115 kts 339°
2026-05-07 18:36 21.68463 39.13402 21 ft 72 kts 339°
2026-05-07 18:36 21.68768 39.13279 21 ft 31 kts 340°
2026-05-07 18:37 21.68960 39.13207 24 ft 20 kts 341°
2026-05-07 18:37 21.69062 39.13200 22 ft 0 kts 33°
2026-05-07 18:37 21.69069 39.13201 22 ft 4 kts
2026-05-07 18:37 21.69123 39.13195 24 ft 11 kts 355°
2026-05-07 18:38 21.69187 39.13200 23 ft 5 kts 10°
2026-05-07 18:38 21.69222 39.13208 21 ft 5 kts 11°
2026-05-07 18:38 21.69248 39.13213 21 ft 0 kts 13°
2026-05-07 18:40 21.69256 39.13216 22 ft 4 kts 14°
2026-05-07 18:40 21.69294 39.13230 22 ft 7 kts 22°
2026-05-07 18:40 21.69331 39.13251 22 ft 3 kts 49°
2026-05-07 18:41 21.69329 39.13263 25 ft 3 kts 112°
2026-05-07 18:41 21.69311 39.13283 24 ft 5 kts 150°
2026-05-07 18:41 21.69269 39.13305 22 ft 8 kts 161°
2026-05-07 18:41 21.69201 39.13330 22 ft 12 kts 161°
2026-05-07 18:42 21.69107 39.13366 22 ft 16 kts 159°
2026-05-07 18:42 21.69006 39.13408 22 ft 15 kts 159°
2026-05-07 18:42 21.68908 39.13449 23 ft 15 kts 159°
2026-05-07 18:42 21.68813 39.13486 22 ft 14 kts 161°
2026-05-07 18:43 21.68722 39.13520 25 ft 14 kts 159°
2026-05-07 18:43 21.68635 39.13556 23 ft 13 kts 159°
2026-05-07 18:43 21.68552 39.13590 22 ft 13 kts 159°
2026-05-07 18:43 21.68471 39.13623 22 ft 12 kts 159°
2026-05-07 18:44 21.68390 39.13654 22 ft 12 kts 161°
2026-05-07 18:44 21.68337 39.13711 22 ft 11 kts 100°
2026-05-07 18:44 21.68301 39.13778 22 ft 11 kts 144°
2026-05-07 18:44 21.68234 39.13807 23 ft 10 kts 160°
2026-05-07 18:45 21.68166 39.13834 23 ft 10 kts 159°
2026-05-07 18:45 21.68102 39.13859 25 ft 10 kts 159°
2026-05-07 18:45 21.68040 39.13884 23 ft 10 kts 159°
2026-05-07 18:45 21.67978 39.13909 23 ft 9 kts 159°
2026-05-07 18:46 21.67918 39.13932 26 ft 9 kts 161°
2026-05-07 18:46 21.67885 39.13947 23 ft 0 kts 149°
2026-05-07 18:46 21.67880 39.13955 23 ft 6 kts 119°
2026-05-07 18:46 21.67892 39.14045 23 ft 19 kts 70°
2026-05-07 18:47 21.67937 39.14176 28 ft 19 kts 70°
2026-05-07 18:47 21.67980 39.14305 28 ft 18 kts 70°
2026-05-07 18:47 21.68021 39.14425 26 ft 12 kts 69°
2026-05-07 18:47 21.68049 39.14505 27 ft 11 kts 70°
2026-05-07 18:48 21.68076 39.14582 28 ft 11 kts 69°
2026-05-07 18:48 21.68103 39.14657 28 ft 11 kts 69°
2026-05-07 18:48 21.68113 39.14689 29 ft 0 kts 74°
2026-05-07 18:49 21.68117 39.14704 29 ft 4 kts 74°
2026-05-07 18:49 21.68126 39.14732 29 ft 4 kts 70°
2026-05-07 18:49 21.68142 39.14782 29 ft 11 kts 70°
2026-05-07 18:50 21.68180 39.14886 30 ft 19 kts 69°
2026-05-07 18:50 21.68190 39.14916 30 ft 5 kts 69°
2026-05-07 18:50 21.68201 39.14947 29 ft 0 kts 70°